Flag for Netherlands Weather past 2 weeks in Hilversum, Netherlands

Now
48 °F

Overcast.


Feels Like: 48 °F
Forecast: 51 / 56 °F
Wind: 2 mph from Southwest

Location: De Bilt

Current Time: Oct 23, 2014 at 1:24:50 AM

Latest Report: Oct 23, 2014 at 12:00 AM


Visibility: 13 mi

Pressure: 30.18 "Hg

Humidity: 87%

Dew point: 44 °F

Location of HilversumLocation

Historic Weather in Hilversum — Graph

°F

Hilversum temperature yesterday

Maximum temperature yesterday: 54 °F (at 2:00 PM)
Minimum temperature yesterday: 45 °F (at 11:00 PM)
Average temperature yesterday: 50 °F

Past Weeks' High & Low Weather Summary

 TemperatureHumidityPressure
High73 °F (Oct 18, 5:00 PM)100% (Oct 11, 2:00 AM)30.18 "Hg (Oct 11, 2:00 AM)
Low44 °F (Oct 12, 8:00 AM)63% (Oct 15, 3:00 PM)29.44 "Hg (Oct 21, 2:00 PM)
Average57 °F88%29.81 "Hg
* Reported Midnight between Oct 7 and Oct 8 — Midnight between Oct 22 and Oct 23, Hilversum, Weather by CustomWeather, © 2014

Note: Actual official high and low records may vary slightly from our data, if they occured in-between our weather recording intervals... More about our weather records

Advertising

Hilversum weather history for previous 24 hours

 ConditionsComfort  
Time TempWeatherWind HumidityBarometerVisibility
12:00 AM
Oct 23
48 °FOvercast.2 mph87%30.18 "Hg13 mi
11:00 PM
Oct 22
45 °FPassing clouds.1 mph97%30.18 "Hg11 mi
10:00 PM48 °FPassing clouds.1 mph85%30.18 "Hg13 mi
9:00 PM51 °FOvercast.2 mph80%30.16 "Hg13 mi
8:00 PM52 °FOvercast.2 mph81%30.16 "Hg12 mi
7:00 PM52 °FOvercast.2 mph75%30.14 "Hg17 mi
6:00 PM52 °FScattered clouds.2 mph77%30.14 "Hg19 mi
5:00 PM53 °FOvercast.5 mph72%30.12 "Hg17 mi
4:00 PM54 °FPassing clouds.5 mph74%30.11 "Hg13 mi
3:00 PM54 °FLight freezing rain. Overcast.7 mph73%30.10 "Hg11 mi
2:00 PM54 °FOvercast.6 mph69%30.09 "Hg16 mi
1:00 PM53 °FOvercast.5 mph80%30.08 "Hg13 mi
12:00 PM52 °FOvercast.5 mph83%30.07 "Hg14 mi
11:00 AM50 °FRain showers. Overcast.6 mph83%30.05 "Hg5 mi
10:00 AM49 °FRain showers. Overcast.3 mph85%30.03 "Hg12 mi
9:00 AM49 °FOvercast.5 mph78%30.00 "Hg16 mi
8:00 AM47 °FOvercast.3 mph85%29.97 "Hg16 mi
7:00 AM47 °FRain showers. Overcast.5 mph90%29.95 "Hg7 mi
6:00 AM46 °FRain showers. Overcast.6 mph88%29.95 "Hg8 mi
5:00 AM47 °FOvercast.6 mph83%29.92 "Hg25 mi
4:00 AM48 °FPassing clouds.6 mph81%29.91 "Hg9 mi
3:00 AM50 °FOvercast.7 mph67%29.88 "Hg10 mi
2:00 AM49 °FDrizzle. Overcast.7 mph75%29.85 "Hg13 mi
1:00 AM47 °FRain. Overcast.9 mph79%29.83 "Hg5 mi
Weather by CustomWeather, © 2014

See weather overviewHow to use our weather pages